Location: Unspecified
(0.0000°N, 0.0000°E)
Time: 19:11:50
(UTC+00:00)

OBJECT B - Pass Details

Date: 20 March 2026
Orbit: 889 x 904 km, 45.0° (Epoch: 18 April)

Event Time Altitude Azimuth Distance (km) Brightness Sun altitude
Rises 19:47:34 0° 226° (SW) 3,496 ? -25.0°
Reaches altitude 10° 19:50:07 10° 227° (SW) 2,556 ? -25.7°
Maximum altitude 19:56:11 75° 312° (NW) 925 ? -27.2°
Enters shadow 19:57:25 57° 17° (NNE) 1,047 ? -27.5°
